Orbital Elements at Epoch 2459000.5 (2020-May-31.0) TDB
Reference: JPL 26 (heliocentric ecliptic J2000)
Element | Value | Uncertainty (1-sigma) | Units |
e | .1401202866750589 | 4.721e-08 | |
a | 2.530894378884503 | 8.6362e-09 | au |
q | 2.176264732970911 | 1.2e-07 | au |
i | 7.279418669546324 | 5.484e-06 | deg |
node | 187.4738918067813 | 2.6749e-05 | deg |
peri | 194.350565666881 | 3.1473e-05 | deg |
M | 33.77886535195508 | 1.6168e-05 | deg |
tp | 2458862.508601759054 (2020-Jan-14.00860176) | 6.5916e-05 | TDB |
period | 1470.650445156683 4.03 | 7.5275e-06 2.061e-08 | d yr |
n | .2447896447354936 | 1.253e-09 | deg/d |
Q | 2.885524024798094 | 9.8463e-09 | au |
|
| | Orbit Determination Parameters
Additional Information
|